Petersburg, AK

11:38 AM AKDT on April 27, 2017 (GMT -0800)
Johnson Petersburg

Weather History for PAPG - August, 2012

Change the Weather History Date:

Sunday, August 19, 2012

  Actual Average Record
Temperature  
Mean Temperature 58 °F -  
Max Temperature 64 °F 58 °F 75 °F (1990)
Min Temperature 51 °F 48 °F 39 °F (1986)
Degree Days  
Heating Degree Days 8    
Growing Degree Days 8 (Base 50)    
Moisture  
Dew Point 52 °F    
Average Humidity 88    
Maximum Humidity 100    
Minimum Humidity 68    
Precipitation  
Precipitation 0.00 in - - ()
Sea Level Pressure  
Sea Level Pressure 30.00 in    
Wind  
Wind Speed 3 mph (ENE)    
Max Wind Speed 8 mph    
Max Gust Speed -    
Visibility 7 miles    
Events      
Averages and records for this station are not official NWS values.
T = Trace of Precipitation, MM = Missing Value Source: NWS Daily Summary

Daily Weather History Graph

Daily Weather History Graph

Search for Another Location

Airport or City:

Trip Planner

Search our weather history database for the weather conditions in past years. The results will help you decide how hot, cold, wet, or windy it might be!

Date:

Astronomy

Aug. 19, 2012 Rise Set
Actual Time 5:29 AM AKDT 8:19 PM AKDT
Civil Twilight 4:45 AM AKDT 9:02 PM AKDT
Nautical Twilight 3:48 AM AKDT 9:59 PM AKDT
Astronomical Twilight 2:28 AM AKDT 11:17 PM AKDT
Moon 8:34 AM AKDT (8/19) 8:23 PM AKDT (8/19)
Length of Visible Light 16h 16m
Length of Day
14h 50m
Waxing Crescent, 6% of the Moon is Illuminated
Aug 19
Waxing Crescent
Aug 24
First Quarter
Aug 31
Full
Sep 8
Last Quarter
Sep 15
New

Hourly Weather History & Observations

Time (AKDT) Temp. Dew Point Humidity Pressure Visibility Wind Dir Wind Speed Gust Speed Precip Events Conditions
12:16 AM 51.8 °F 50.0 °F 94% 29.99 in 10.0 mi ESE 4.6 mph - N/A   Overcast
12:36 AM 51.8 °F 50.0 °F 94% 30.00 in 10.0 mi Calm Calm - N/A   Overcast
12:56 AM 53.6 °F 50.0 °F 88% 29.99 in 10.0 mi Calm Calm - N/A   Overcast
1:16 AM 53.6 °F 51.8 °F 94% 30.00 in 10.0 mi East 4.6 mph - N/A   Overcast
1:36 AM 53.6 °F 51.8 °F 94% 29.99 in 3.0 mi East 3.5 mph - N/A   Overcast
1:56 AM 53.6 °F 51.8 °F 94% 29.99 in 6.0 mi ESE 3.5 mph - N/A   Overcast
2:16 AM 53.6 °F 51.8 °F 94% 29.99 in 5.0 mi East 3.5 mph - N/A   Overcast
2:36 AM 53.6 °F 51.8 °F 94% 29.99 in 5.0 mi East 3.5 mph - N/A   Overcast
2:56 AM 53.6 °F 51.8 °F 94% 29.99 in 10.0 mi ENE 4.6 mph - N/A   Overcast
3:16 AM 53.6 °F 51.8 °F 94% 29.99 in 7.0 mi Calm Calm - N/A   Overcast
3:36 AM 53.6 °F 51.8 °F 94% 29.99 in 10.0 mi Calm Calm - N/A   Overcast
3:56 AM 53.6 °F 51.8 °F 94% 29.99 in 10.0 mi ENE 3.5 mph - N/A   Overcast
4:16 AM 53.6 °F 51.8 °F 94% 29.99 in 4.0 mi Calm Calm - N/A   Overcast
4:36 AM 53.6 °F 51.8 °F 94% 29.99 in 1.8 mi Calm Calm - N/A   Overcast
4:56 AM 51.8 °F 50.0 °F 94% 29.99 in 0.8 mi ENE 3.5 mph - N/A   Overcast
5:16 AM 51.8 °F 50.0 °F 94% 29.99 in 0.5 mi ENE 3.5 mph - N/A   Overcast
5:36 AM 51.8 °F 50.0 °F 94% 29.99 in 0.5 mi East 3.5 mph - N/A   Overcast
5:56 AM 51.8 °F 50.0 °F 94% 30.00 in 0.2 mi Calm Calm - N/A   Unknown
6:16 AM 51.8 °F 50.0 °F 94% 30.00 in 0.2 mi East 3.5 mph - N/A   Unknown
6:36 AM 51.8 °F 51.8 °F 100% 30.00 in 0.2 mi East 3.5 mph - N/A   Unknown
6:56 AM 51.8 °F 51.8 °F 100% 30.00 in 1.0 mi Calm Calm - N/A   Overcast
7:16 AM 51.8 °F 51.8 °F 100% 30.00 in 1.0 mi Calm Calm - N/A   Overcast
7:36 AM 51.8 °F 50.0 °F 94% 30.00 in 1.0 mi ENE 3.5 mph - N/A   Overcast
7:56 AM 51.8 °F 50.0 °F 94% 30.00 in 0.8 mi ENE 3.5 mph - N/A   Unknown
8:16 AM 51.8 °F 51.8 °F 100% 30.01 in 0.8 mi ENE 4.6 mph - N/A   Unknown
8:36 AM 51.8 °F 51.8 °F 100% 30.01 in 0.8 mi NE 3.5 mph - N/A   Unknown
8:56 AM 51.8 °F 50.0 °F 94% 30.02 in 1.0 mi NE 3.5 mph - N/A   Unknown
9:16 AM 51.8 °F 51.8 °F 100% 30.02 in 1.0 mi ENE 3.5 mph - N/A   Unknown
9:36 AM 53.6 °F 51.8 °F 94% 30.02 in 1.0 mi ENE 4.6 mph - N/A   Unknown
9:56 AM 53.6 °F 51.8 °F 94% 30.02 in 2.0 mi NE 3.5 mph - N/A   Mostly Cloudy
10:16 AM 55.4 °F 53.6 °F 94% 30.02 in 3.0 mi ENE 4.6 mph - N/A   Mostly Cloudy
10:36 AM 55.4 °F 53.6 °F 94% 30.02 in 3.0 mi ENE 4.6 mph - N/A   Mostly Cloudy
10:56 AM 57.2 °F 53.6 °F 88% 30.01 in 4.0 mi Calm Calm - N/A   Mostly Cloudy
11:16 AM 55.4 °F 53.6 °F 94% 30.01 in 4.0 mi Calm Calm - N/A   Mostly Cloudy
11:36 AM 57.2 °F 53.6 °F 88% 30.01 in 10.0 mi NE 3.5 mph - N/A   Mostly Cloudy
11:56 AM 57.2 °F 53.6 °F 88% 30.01 in 10.0 mi ENE 5.8 mph - N/A   Mostly Cloudy
12:16 PM 57.2 °F 53.6 °F 88% 30.02 in 10.0 mi NE 6.9 mph - N/A   Mostly Cloudy
12:29 PM 55.4 °F 51.8 °F 88% 30.02 in 0.8 mi NE 3.5 mph - N/A   Overcast
12:36 PM 55.4 °F 51.8 °F 88% 30.03 in 0.8 mi NE 8.1 mph - N/A   Overcast
12:56 PM 55.4 °F 51.8 °F 88% 30.03 in 3.0 mi ENE 6.9 mph - N/A   Mostly Cloudy
1:16 PM 55.4 °F 51.8 °F 88% 30.02 in 10.0 mi ENE 5.8 mph - N/A   Mostly Cloudy
1:36 PM 57.2 °F 53.6 °F 88% 30.02 in 10.0 mi ENE 5.8 mph - N/A   Mostly Cloudy
1:56 PM 60.8 °F 53.6 °F 77% 30.01 in 10.0 mi ENE 4.6 mph - N/A   Scattered Clouds
2:16 PM 60.8 °F 53.6 °F 77% 30.01 in 10.0 mi East 4.6 mph - N/A   Scattered Clouds
2:36 PM 60.8 °F 53.6 °F 77% 30.01 in 10.0 mi NE 5.8 mph - N/A   Scattered Clouds
2:56 PM 62.6 °F 53.6 °F 72% 30.01 in 10.0 mi ENE 5.8 mph - N/A   Scattered Clouds
3:16 PM 60.8 °F 53.6 °F 77% 30.00 in 10.0 mi ENE 6.9 mph - N/A   Scattered Clouds
3:36 PM 62.6 °F 55.4 °F 77% 30.00 in 10.0 mi East 4.6 mph - N/A   Scattered Clouds
3:56 PM 62.6 °F 53.6 °F 72% 30.00 in 10.0 mi East 5.8 mph - N/A   Partly Cloudy
4:16 PM 64.4 °F 53.6 °F 68% 30.00 in 10.0 mi ENE 5.8 mph - N/A   Partly Cloudy
4:36 PM 64.4 °F 53.6 °F 68% 29.99 in 10.0 mi ENE 5.8 mph - N/A   Partly Cloudy
4:56 PM 64.4 °F 53.6 °F 68% 29.99 in 10.0 mi NE 3.5 mph - N/A   Partly Cloudy
5:16 PM 62.6 °F 53.6 °F 72% 29.99 in 10.0 mi ENE 4.6 mph - N/A   Partly Cloudy
5:36 PM 62.6 °F 53.6 °F 72% 29.99 in 10.0 mi ENE 4.6 mph - N/A   Partly Cloudy
5:56 PM 62.6 °F 53.6 °F 72% 29.99 in 10.0 mi ENE 4.6 mph - N/A   Partly Cloudy
6:16 PM 62.6 °F 53.6 °F 72% 29.98 in 10.0 mi NE 4.6 mph - N/A   Partly Cloudy
6:36 PM 60.8 °F 53.6 °F 77% 29.99 in 10.0 mi ENE 3.5 mph - N/A   Partly Cloudy
6:56 PM 60.8 °F 51.8 °F 72% 29.99 in 10.0 mi ENE 4.6 mph - N/A   Partly Cloudy
7:16 PM 59.0 °F 51.8 °F 77% 29.98 in 10.0 mi East 6.9 mph - N/A   Partly Cloudy
7:36 PM 60.8 °F 51.8 °F 72% 29.99 in 10.0 mi East 4.6 mph - N/A   Partly Cloudy
7:56 PM 60.8 °F 53.6 °F 77% 29.99 in 10.0 mi East 4.6 mph - N/A   Scattered Clouds
8:16 PM 57.2 °F 53.6 °F 88% 29.99 in 10.0 mi ESE 4.6 mph - N/A   Scattered Clouds
8:56 PM 55.4 °F 53.6 °F 94% 29.99 in 10.0 mi East 4.6 mph - N/A   Clear
9:16 PM 55.4 °F 51.8 °F 88% 29.99 in 10.0 mi East 4.6 mph - N/A   Clear
9:36 PM 55.4 °F 53.6 °F 94% 29.99 in 10.0 mi East 3.5 mph - N/A   Clear
9:56 PM 55.4 °F 51.8 °F 88% 30.00 in 10.0 mi SE 3.5 mph - N/A   Clear
10:16 PM 53.6 °F 51.8 °F 94% 30.00 in 10.0 mi South 3.5 mph - N/A   Clear
10:36 PM 53.6 °F 51.8 °F 94% 30.00 in 10.0 mi Calm Calm - N/A   Clear
10:56 PM 53.6 °F 51.8 °F 94% 30.00 in 10.0 mi Calm Calm - N/A   Clear
11:16 PM 51.8 °F 50.0 °F 94% 30.00 in 10.0 mi Calm Calm - N/A   Clear
11:36 PM 53.6 °F 51.8 °F 94% 30.01 in 10.0 mi Calm Calm - N/A   Clear
11:56 PM 51.8 °F 48.2 °F 88% 30.01 in 9.0 mi Calm Calm - N/A   Clear